Hearne, TX

11:41 PM CDT on August 26, 2016 (GMT -0500)
Hearne

Weather History for KLHB - December, 2012

Change the Weather History Date:

Sunday, December 16, 2012

  Actual Average (KCLL) Record (KCLL)
Temperature  
Mean Temperature 60 °F 52 °F  
Max Temperature 69 °F 62 °F 82 °F (1924)
Min Temperature 50 °F 42 °F 13 °F (1989)
Degree Days  
Heating Degree Days 5 14  
Month to date heating degree days 196  
Since 1 July heating degree days 421  
Cooling Degree Days 0 0  
Month to date cooling degree days 13  
Year to date cooling degree days 3086  
Growing Degree Days 10 (Base 50)    
Moisture  
Dew Point 49 °F    
Average Humidity 64    
Maximum Humidity 82    
Minimum Humidity 40    
Precipitation  
Precipitation 0.24 in 0.11 in 1.24 in (2012)
Month to date precipitation 1.67  
Year to date precipitation 38.50  
Sea Level Pressure  
Sea Level Pressure 29.81 in    
Wind  
Wind Speed 0 mph (SW)    
Max Wind Speed 14 mph    
Max Gust Speed 29 mph    
Visibility 10 miles    
Events Rain , Thunderstorm    
T = Trace of Precipitation, MM = Missing Value Source: NWS Daily Summary

Daily Weather History Graph

Daily Weather History Graph

Search for Another Location

Airport or City:

Trip Planner

Search our weather history database for the weather conditions in past years. The results will help you decide how hot, cold, wet, or windy it might be!

Date:

Astronomy

Dec. 16, 2012 Rise Set
Actual Time 7:17 AM CST 5:27 PM CST
Civil Twilight 6:51 AM CST 5:53 PM CST
Nautical Twilight 6:20 AM CST 6:23 PM CST
Astronomical Twilight 5:51 AM CST 6:53 PM CST
Moon 10:03 AM CST (12/16) 9:29 PM CST (12/16)
Length of Visible Light 11h 02m
Length of Day
10h 09m
Waxing Crescent, 16% of the Moon is Illuminated
Dec 16
Waxing Crescent
Dec 19
First Quarter
Dec 28
Full
Jan 4
Last Quarter
Jan 11
New

Hourly Weather History & Observations

Time (CST) Temp. Dew Point Humidity Pressure Visibility Wind Dir Wind Speed Gust Speed Precip Events Conditions
12:15 AM 60.8 °F 46.4 °F 59% 29.86 in 10.0 mi Calm Calm - N/A   Clear
12:55 AM 60.8 °F 46.4 °F 59% 29.86 in 10.0 mi Calm Calm - N/A   Clear
1:15 AM 60.8 °F 46.4 °F 59% 29.85 in 10.0 mi Calm Calm - N/A   Clear
1:35 AM 60.8 °F 46.4 °F 59% 29.84 in 10.0 mi Calm Calm - N/A   Clear
1:55 AM 60.8 °F 48.2 °F 63% 29.83 in 10.0 mi Calm Calm - N/A   Clear
2:15 AM 62.6 °F 44.6 °F 52% 29.81 in 10.0 mi Calm Calm - N/A   Clear
2:55 AM 62.6 °F 44.6 °F 52% 29.78 in 10.0 mi Calm Calm - N/A   Scattered Clouds
3:15 AM 64.4 °F 44.6 °F 49% 29.80 in 10.0 mi Calm Calm - N/A   Scattered Clouds
3:35 AM 64.4 °F 44.6 °F 49% 29.83 in 10.0 mi Calm Calm - N/A   Overcast
3:55 AM 64.4 °F 44.6 °F 49% 29.82 in 10.0 mi Calm Calm - N/A   Overcast
4:15 AM 64.4 °F 46.4 °F 52% 29.83 in 10.0 mi Calm Calm - N/A   Overcast
4:35 AM 64.4 °F 46.4 °F 52% 29.83 in 10.0 mi Calm Calm - N/A   Mostly Cloudy
4:55 AM 64.4 °F 46.4 °F 52% 29.81 in 10.0 mi Calm Calm - N/A   Mostly Cloudy
5:15 AM 64.4 °F 44.6 °F 49% 29.83 in 10.0 mi Calm Calm - N/A   Overcast
5:35 AM 64.4 °F 44.6 °F 49% 29.83 in 10.0 mi Calm Calm - N/A   Overcast
5:55 AM 62.6 °F 48.2 °F 59% 29.81 in 1.5 mi Calm Calm - 0.02 in Rain , Thunderstorm Heavy Thunderstorms and Rain
6:15 AM 60.8 °F 50.0 °F 68% 29.85 in 10.0 mi Calm Calm - 0.03 in Rain , Thunderstorm Light Thunderstorms and Rain
6:35 AM 60.8 °F 48.2 °F 63% 29.84 in 10.0 mi Calm Calm - 0.05 in Rain Light Rain
6:55 AM 59.0 °F 50.0 °F 72% 29.85 in 10.0 mi Calm Calm - 0.07 in Rain Light Rain
7:15 AM 60.8 °F 50.0 °F 68% 29.83 in 10.0 mi Calm Calm - 0.02 in Rain Light Rain
7:35 AM 60.8 °F 51.8 °F 72% 29.84 in 10.0 mi Calm Calm - 0.03 in   Light Drizzle
7:55 AM 60.8 °F 51.8 °F 72% 29.82 in 10.0 mi Calm Calm - 0.04 in Rain Light Rain
8:15 AM 60.8 °F 51.8 °F 72% 29.81 in 10.0 mi Calm Calm - 0.01 in   Light Drizzle
8:35 AM 60.8 °F 53.6 °F 77% 29.78 in 10.0 mi Calm Calm - 0.02 in   Light Drizzle
8:55 AM 64.4 °F 53.6 °F 68% 29.78 in 10.0 mi SE 9.2 mph 16.1 mph 0.03 in Rain Light Rain
9:15 AM 62.6 °F 51.8 °F 68% 29.85 in 10.0 mi WNW 13.8 mph 28.8 mph N/A   Mostly Cloudy
9:35 AM 62.6 °F 51.8 °F 68% 29.85 in 10.0 mi Calm Calm - 0.01 in   Scattered Clouds
9:55 AM 62.6 °F 53.6 °F 72% 29.85 in 10.0 mi Calm Calm - 0.01 in   Clear
10:15 AM 62.6 °F 53.6 °F 72% 29.84 in 10.0 mi Calm Calm - 0.01 in   Clear
10:35 AM 62.6 °F 53.6 °F 72% 29.84 in 10.0 mi Calm Calm - 0.02 in   Clear
10:55 AM 62.6 °F 53.6 °F 72% 29.84 in 10.0 mi Calm Calm - 0.02 in   Clear
11:15 AM 62.6 °F 53.6 °F 72% 29.83 in 10.0 mi Calm Calm - N/A   Clear
11:35 AM 62.6 °F 53.6 °F 72% 29.83 in 10.0 mi Calm Calm - 0.01 in   Clear
11:55 AM 64.4 °F 53.6 °F 68% 29.81 in 10.0 mi Calm Calm - 0.01 in   Clear
12:15 PM 64.4 °F 53.6 °F 68% 29.81 in 10.0 mi Calm Calm - N/A   Clear
12:35 PM 64.4 °F 53.6 °F 68% 29.80 in 10.0 mi Calm Calm - 0.01 in   Clear
12:55 PM 64.4 °F 53.6 °F 68% 29.78 in 10.0 mi Calm Calm - 0.01 in   Clear
1:15 PM 64.4 °F 53.6 °F 68% 29.78 in 10.0 mi Calm Calm - N/A   Clear
1:35 PM 64.4 °F 53.6 °F 68% 29.78 in 10.0 mi Calm Calm - N/A   Clear
1:55 PM 66.2 °F 51.8 °F 60% 29.77 in 10.0 mi Calm Calm - 0.01 in   Clear
2:15 PM 66.2 °F 50.0 °F 56% 29.78 in 10.0 mi Calm Calm - N/A   Clear
2:35 PM 66.2 °F 50.0 °F 56% 29.77 in 10.0 mi Calm Calm - N/A   Clear
2:55 PM 68.0 °F 50.0 °F 52% 29.77 in 10.0 mi Calm Calm - N/A   Clear
3:15 PM 68.0 °F 48.2 °F 49% 29.77 in 10.0 mi Calm Calm - 0.01 in   Clear
3:35 PM 68.0 °F 48.2 °F 49% 29.77 in 10.0 mi Calm Calm - 0.01 in   Clear
3:55 PM 69.8 °F 44.6 °F 40% 29.77 in 10.0 mi Calm Calm - 0.01 in   Clear
4:15 PM 69.8 °F 44.6 °F 40% 29.77 in 10.0 mi Calm Calm - N/A   Clear
4:35 PM 68.0 °F 44.6 °F 43% 29.77 in 10.0 mi Calm Calm - N/A   Clear
4:55 PM 66.2 °F 50.0 °F 56% 29.77 in 10.0 mi Calm Calm - N/A   Clear
5:15 PM 64.4 °F 50.0 °F 59% 29.78 in 10.0 mi Calm Calm - N/A   Clear
5:35 PM 64.4 °F 51.8 °F 64% 29.77 in 10.0 mi Calm Calm - N/A   Clear
5:55 PM 62.6 °F 51.8 °F 68% 29.77 in 10.0 mi Calm Calm - N/A   Clear
6:15 PM 62.6 °F 51.8 °F 68% 29.77 in 10.0 mi Calm Calm - N/A   Clear
6:35 PM 62.6 °F 51.8 °F 68% 29.77 in 10.0 mi Calm Calm - N/A   Clear
6:55 PM 60.8 °F 51.8 °F 72% 29.77 in 10.0 mi Calm Calm - 0.01 in   Clear
7:15 PM 59.0 °F 50.0 °F 72% 29.78 in 10.0 mi Calm Calm - N/A   Clear
7:35 PM 59.0 °F 50.0 °F 72% 29.78 in 10.0 mi Calm Calm - N/A   Clear
7:55 PM 57.2 °F 50.0 °F 77% 29.79 in 10.0 mi Calm Calm - N/A   Clear
8:15 PM 55.4 °F 48.2 °F 77% 29.80 in 10.0 mi Calm Calm - N/A   Clear
8:35 PM 55.4 °F 48.2 °F 77% 29.81 in 7.0 mi Calm Calm - N/A   Clear
8:55 PM 55.4 °F 46.4 °F 72% 29.81 in 7.0 mi Calm Calm - N/A   Clear
9:15 PM 53.6 °F 46.4 °F 77% 29.81 in 7.0 mi Calm Calm - N/A   Clear
9:35 PM 55.4 °F 48.2 °F 77% 29.82 in 10.0 mi Calm Calm - N/A   Clear
9:55 PM 55.4 °F 50.0 °F 82% 29.83 in 10.0 mi Calm Calm - N/A   Clear
10:15 PM 55.4 °F 46.4 °F 72% 29.83 in 7.0 mi Calm Calm - N/A   Clear
10:35 PM 53.6 °F 46.4 °F 77% 29.84 in 7.0 mi Calm Calm - N/A   Clear
10:55 PM 53.6 °F 46.4 °F 77% 29.85 in 7.0 mi Calm Calm - N/A   Clear
11:15 PM 51.8 °F 44.6 °F 76% 29.85 in 7.0 mi Calm Calm - N/A   Clear
11:55 PM 50.0 °F 44.6 °F 82% 29.85 in 7.0 mi Calm Calm - N/A   Clear